Location: Teplice
(50.6330°N, 13.8330°E)
Time: 07:25:10
(UTC+02:00)

ISS - Visible Passes

Search period start: 23 May 2018 00:00
Search period end: 02 June 2018 00:00
Orbit: 402 x 407 km, 51.6° (Epoch: 24 May)

Date Brightness Start Highest point End Pass type
(mag) Time Alt. Az. Time Alt. Az. Time Alt. Az.
23 May -3.6 00:38:06 10° W 00:41:22 71° N 00:44:38 10° E visible
23 May -4.0 02:14:38 10° WNW 02:17:53 67° SSW 02:21:07 10° ESE visible
23 May -2.3 03:51:39 10° W 03:53:56 18° SW 03:56:13 10° S visible
23 May -3.6 22:09:33 10° SW 22:12:42 47° SSE 22:15:53 10° E visible
23 May -3.7 23:45:52 10° W 23:49:08 75° N 23:52:25 10° E visible
24 May -4.0 01:22:26 10° WNW 01:25:43 88° SSW 01:27:54 19° ESE visible
24 May -2.1 02:59:08 10° W 03:00:18 18° WSW 03:00:18 18° WSW visible
24 May -3.8 22:53:38 10° W 22:56:55 86° N 23:00:12 10° ENE visible
25 May -3.8 00:30:14 10° W 00:33:30 78° N 00:35:43 19° E visible
25 May -2.3 02:06:47 10° W 02:08:18 23° W 02:08:18 23° W visible
25 May -3.9 22:01:27 10° WSW 22:04:42 76° SSE 22:07:59 10° ENE visible
25 May -3.6 23:38:00 10° W 23:41:16 72° N 23:44:32 10° E visible
26 May -3.5 01:14:32 10° WNW 01:17:13 50° WSW 01:17:13 50° WSW visible
26 May -3.6 22:45:44 10° W 22:49:00 73° N 22:52:17 10° E visible
27 May -4.0 00:22:17 10° WNW 00:25:34 81° SSW 00:26:24 47° ESE visible
27 May -3.7 21:53:27 10° W 21:56:44 81° N 22:00:01 10° ENE visible
27 May -3.8 23:30:02 10° WNW 23:33:20 82° N 23:35:40 18° E visible
28 May -2.3 01:06:38 10° W 01:08:17 24° WSW 01:08:17 24° WSW visible
28 May -3.6 22:37:47 10° W 22:41:03 73° N 22:44:19 10° E visible
29 May -3.7 00:14:19 10° W 00:17:31 52° SSW 00:17:36 52° SSW visible
29 May -3.5 21:45:29 10° W 21:48:45 72° N 21:52:01 10° E visible
29 May -3.9 23:22:02 10° WNW 23:25:18 73° SSW 23:26:58 26° ESE visible
30 May -1.5 00:58:55 10° W 00:59:36 13° WSW 00:59:36 13° WSW visible
30 May -3.8 22:29:45 10° WNW 22:33:02 88° NNE 22:36:18 10° ESE visible
31 May -2.8 00:06:23 10° W 00:08:59 30° SW 00:08:59 30° SW visible
31 May -3.4 23:13:59 10° W 23:17:08 45° SSW 23:18:23 29° SSE visible
01 Jun -3.8 22:21:40 10° WNW 22:24:55 66° SSW 22:27:49 12° ESE visible
